EZY459 EGPH-EGKK

Flight info

Callsign EZY459
Flight time 1h 13m
Altitude 33000
Route GOSAM P600 FENIK L612 NAVSO DCT KEPAD L151 DISIT
Aircraft A20N/M-SDE2E3FGHIRWXY/LB1

Departure

Time 2026-05-03 21:52
Airport Edinburgh Airport (EGPH)

Arrival

Time 2026-05-03 23:06
Airport London Gatwick Airport (EGKK)
Time Latitude Longitude Altitude Speed Heading
2026-05-03 21:34 55.94655 -3.36854 106 ft 0 kts 269°
2026-05-03 21:41 55.94655 -3.36840 105 ft 2 kts 269°
2026-05-03 21:42 55.94655 -3.36818 105 ft 2 kts 269°
2026-05-03 21:42 55.94655 -3.36797 104 ft 2 kts 269°
2026-05-03 21:42 55.94656 -3.36769 104 ft 2 kts 269°
2026-05-03 21:42 55.94655 -3.36739 105 ft 2 kts 314°
2026-05-03 21:43 55.94650 -3.36731 103 ft 1 kts 347°
2026-05-03 21:43 55.94656 -3.36732 105 ft 0 kts 354°
2026-05-03 21:45 55.94677 -3.36735 105 ft 6 kts 356°
2026-05-03 21:45 55.94715 -3.36737 106 ft 10 kts 359°
2026-05-03 21:45 55.94776 -3.36771 104 ft 8 kts 339°
2026-05-03 21:46 55.94842 -3.36779 104 ft 11 kts
2026-05-03 21:46 55.94915 -3.36823 105 ft 12 kts 318°
2026-05-03 21:46 55.94902 -3.36969 104 ft 15 kts 236°
2026-05-03 21:46 55.94844 -3.37130 103 ft 16 kts 238°
2026-05-03 21:47 55.94783 -3.37314 106 ft 17 kts 240°
2026-05-03 21:47 55.94722 -3.37496 110 ft 19 kts 239°
2026-05-03 21:47 55.94645 -3.37720 113 ft 22 kts 238°
2026-05-03 21:47 55.94560 -3.37972 111 ft 25 kts 239°
2026-05-03 21:48 55.94466 -3.38249 111 ft 27 kts 239°
2026-05-03 21:48 55.94370 -3.38534 115 ft 22 kts 238°
2026-05-03 21:48 55.94294 -3.38757 115 ft 15 kts 239°
2026-05-03 21:48 55.94290 -3.38860 120 ft 6 kts 307°
2026-05-03 21:49 55.94310 -3.38889 118 ft 0 kts 326°
2026-05-03 21:49 55.94315 -3.38894 118 ft 3 kts 326°
2026-05-03 21:49 55.94348 -3.38933 117 ft 10 kts 329°
2026-05-03 21:50 55.94414 -3.38958 114 ft 8 kts 26°
2026-05-03 21:50 55.94432 -3.38917 118 ft 0 kts 60°
2026-05-03 21:51 55.94432 -3.38916 118 ft 1 kts 60°
2026-05-03 21:51 55.94452 -3.38855 115 ft 18 kts 59°
2026-05-03 21:52 55.94652 -3.38273 113 ft 91 kts 59°
2026-05-03 21:52 55.95089 -3.36982 110 ft 149 kts 59°
2026-05-03 21:52 55.95648 -3.35350 596 ft 154 kts 58°
2026-05-03 21:52 55.96223 -3.33689 1208 ft 165 kts 53°
2026-05-03 21:53 55.97092 -3.32204 1685 ft 182 kts 37°
2026-05-03 21:53 55.98176 -3.30821 2129 ft 202 kts 35°
2026-05-03 21:53 55.99371 -3.29244 2614 ft 224 kts 37°
2026-05-03 21:53 56.00786 -3.27853 3242 ft 243 kts 13°
2026-05-03 21:54 56.02483 -3.27883 3975 ft 254 kts 343°
2026-05-03 21:54 56.04007 -3.29479 4944 ft 260 kts 317°
2026-05-03 21:54 56.05026 -3.32175 5099 ft 263 kts 290°
2026-05-03 21:54 56.05208 -3.35423 5210 ft 267 kts 262°
2026-05-03 21:55 56.04507 -3.38501 5331 ft 271 kts 237°
2026-05-03 21:55 56.03375 -3.41218 5440 ft 272 kts 235°
2026-05-03 21:55 56.02367 -3.44073 5549 ft 271 kts 243°
2026-05-03 21:55 56.01597 -3.47098 5668 ft 271 kts 250°
2026-05-03 21:56 56.00991 -3.50293 5784 ft 271 kts 254°
2026-05-03 21:56 56.00479 -3.53564 6091 ft 275 kts 256°
2026-05-03 21:56 56.00004 -3.56878 6988 ft 274 kts 257°
2026-05-03 21:56 55.99540 -3.60161 8047 ft 273 kts 257°
2026-05-03 21:57 55.99066 -3.63469 9017 ft 276 kts 257°
2026-05-03 21:57 55.98581 -3.66800 9983 ft 278 kts 257°
2026-05-03 21:57 55.98081 -3.70212 10591 ft 293 kts 257°
2026-05-03 21:57 55.97544 -3.73875 10896 ft 317 kts 256°
2026-05-03 21:58 55.96966 -3.77795 11370 ft 332 kts 256°
2026-05-03 21:58 55.96372 -3.81802 12187 ft 335 kts 256°
2026-05-03 21:58 55.95768 -3.85859 12990 ft 340 kts 256°
2026-05-03 21:58 55.95158 -3.89958 13792 ft 344 kts 256°
2026-05-03 21:59 55.94539 -3.94110 14520 ft 348 kts 256°
2026-05-03 21:59 55.93871 -3.98284 15229 ft 352 kts 250°
2026-05-03 21:59 55.92656 -4.02049 15922 ft 359 kts 233°
2026-05-03 21:59 55.90910 -4.05277 16628 ft 364 kts 223°
2026-05-03 22:00 55.88905 -4.08086 17319 ft 369 kts 217°
2026-05-03 22:00 55.86781 -4.10699 18011 ft 373 kts 216°
2026-05-03 22:00 55.84601 -4.13272 18637 ft 377 kts 215°
2026-05-03 22:00 55.82396 -4.15865 19183 ft 382 kts 215°
2026-05-03 22:01 55.80171 -4.18502 19738 ft 387 kts 216°
2026-05-03 22:01 55.77920 -4.21173 20295 ft 392 kts 213°
2026-05-03 22:01 55.75430 -4.23232 20823 ft 399 kts 201°
2026-05-03 22:01 55.72792 -4.24642 21343 ft 405 kts 192°
2026-05-03 22:02 55.69965 -4.24978 21898 ft 410 kts 175°
2026-05-03 22:02 55.67160 -4.23998 22462 ft 414 kts 162°
2026-05-03 22:02 55.64465 -4.22135 22979 ft 418 kts 154°
2026-05-03 22:02 55.61856 -4.19814 23517 ft 422 kts 151°
2026-05-03 22:03 55.59268 -4.17292 23979 ft 425 kts 149°
2026-05-03 22:03 55.56683 -4.14715 24431 ft 429 kts 149°
2026-05-03 22:03 55.54069 -4.12117 24870 ft 432 kts 149°
2026-05-03 22:03 55.51432 -4.09518 25302 ft 436 kts 149°
2026-05-03 22:04 55.48768 -4.06911 25729 ft 439 kts 149°
2026-05-03 22:04 55.46083 -4.04300 26141 ft 442 kts 149°
2026-05-03 22:04 55.43415 -4.01714 26693 ft 441 kts 149°
2026-05-03 22:04 55.40711 -3.99099 27098 ft 445 kts 149°
2026-05-03 22:05 55.37979 -3.96458 27456 ft 449 kts 149°
2026-05-03 22:05 55.35226 -3.93801 27838 ft 452 kts 149°
2026-05-03 22:05 55.32460 -3.91136 28208 ft 455 kts 148°
2026-05-03 22:05 55.29670 -3.88451 28580 ft 458 kts 148°
2026-05-03 22:06 55.26863 -3.85754 28930 ft 461 kts 148°
2026-05-03 22:06 55.24044 -3.83055 29299 ft 463 kts 149°
2026-05-03 22:06 55.21134 -3.80695 29604 ft 469 kts 156°
2026-05-03 22:06 55.18036 -3.78827 29975 ft 472 kts 159°
2026-05-03 22:07 55.14903 -3.77016 30262 ft 475 kts 159°
2026-05-03 22:07 55.11753 -3.75189 30598 ft 476 kts 159°
2026-05-03 22:07 55.08608 -3.73357 30928 ft 477 kts 159°
2026-05-03 22:07 55.05450 -3.71516 31269 ft 478 kts 159°
2026-05-03 22:08 55.02299 -3.69680 31681 ft 477 kts 159°
2026-05-03 22:08 54.99159 -3.67853 32114 ft 475 kts 159°
2026-05-03 22:08 54.96025 -3.66033 32548 ft 473 kts 160°
2026-05-03 22:08 54.92912 -3.64225 32824 ft 469 kts 160°
2026-05-03 22:09 54.86760 -3.60663 33006 ft 466 kts 160°
2026-05-03 22:10 54.77566 -3.55367 33004 ft 465 kts 160°
2026-05-03 22:10 54.71410 -3.51836 33004 ft 465 kts 160°
2026-05-03 22:11 54.65280 -3.48325 33005 ft 462 kts 161°
2026-05-03 22:11 54.59181 -3.44848 32999 ft 462 kts 161°
2026-05-03 22:12 54.53063 -3.41373 33003 ft 463 kts 161°
2026-05-03 22:12 54.46944 -3.37908 32996 ft 464 kts 161°
2026-05-03 22:13 54.40791 -3.34430 32997 ft 473 kts 162°
2026-05-03 22:13 54.34518 -3.30900 32994 ft 474 kts 162°
2026-05-03 22:14 54.28247 -3.27383 32993 ft 474 kts 162°
2026-05-03 22:14 54.21974 -3.23876 32993 ft 474 kts 162°
2026-05-03 22:15 54.15716 -3.20384 32987 ft 471 kts 162°
2026-05-03 22:15 54.09488 -3.16924 32987 ft 472 kts 163°
2026-05-03 22:16 54.03318 -3.13505 32992 ft 467 kts 163°
2026-05-03 22:16 53.97118 -3.10084 32988 ft 468 kts 163°
2026-05-03 22:17 53.90940 -3.06684 32985 ft 465 kts 163°
2026-05-03 22:17 53.84777 -3.03303 32983 ft 466 kts 163°
2026-05-03 22:18 53.78609 -2.99929 32980 ft 465 kts 163°
2026-05-03 22:18 53.72441 -2.96567 32980 ft 465 kts 163°
2026-05-03 22:19 53.66293 -2.93227 32977 ft 462 kts 163°
2026-05-03 22:19 53.60166 -2.89907 32977 ft 463 kts 163°
2026-05-03 22:20 53.54034 -2.86596 32977 ft 463 kts 163°
2026-05-03 22:20 53.47940 -2.83315 32977 ft 463 kts 163°
2026-05-03 22:21 53.41803 -2.80020 32980 ft 463 kts 163°
2026-05-03 22:21 53.35673 -2.76739 32979 ft 463 kts 163°
2026-05-03 22:22 53.29527 -2.73459 32977 ft 463 kts 163°
2026-05-03 22:22 53.23386 -2.70192 32978 ft 462 kts 163°
2026-05-03 22:23 53.17308 -2.66967 32974 ft 460 kts 163°
2026-05-03 22:23 53.11195 -2.63735 32963 ft 461 kts 163°
2026-05-03 22:24 53.05079 -2.60510 32964 ft 461 kts 163°
2026-05-03 22:24 52.98970 -2.57298 32965 ft 461 kts 163°
2026-05-03 22:25 52.92872 -2.54101 32965 ft 458 kts 163°
2026-05-03 22:25 52.86792 -2.50920 32965 ft 456 kts 164°
2026-05-03 22:26 52.80871 -2.47333 32965 ft 458 kts 155°
2026-05-03 22:26 52.75417 -2.41813 32964 ft 460 kts 148°
2026-05-03 22:27 52.70110 -2.35910 32958 ft 460 kts 148°
2026-05-03 22:27 52.66483 -2.31909 32957 ft 460 kts 148°
2026-05-03 22:34 52.63868 -2.29036 32953 ft 460 kts 148°
2026-05-03 22:34 52.59994 -2.24786 32951 ft 443 kts 148°
2026-05-03 22:35 52.54880 -2.19198 32653 ft 443 kts 148°
2026-05-03 22:35 52.52314 -2.16400 32381 ft 442 kts 148°
2026-05-03 22:35 52.49751 -2.13609 32074 ft 441 kts 149°
2026-05-03 22:35 52.47185 -2.10818 31408 ft 443 kts 149°
2026-05-03 22:36 52.44651 -2.08066 30871 ft 439 kts 149°
2026-05-03 22:36 52.42114 -2.05313 30316 ft 434 kts 149°
2026-05-03 22:36 52.39603 -2.02592 29719 ft 430 kts 149°
2026-05-03 22:36 52.37125 -1.99910 29137 ft 424 kts 149°
2026-05-03 22:37 52.34682 -1.97271 28542 ft 418 kts 149°
2026-05-03 22:37 52.32268 -1.94666 28108 ft 413 kts 149°
2026-05-03 22:37 52.29863 -1.92077 27528 ft 411 kts 149°
2026-05-03 22:37 52.27482 -1.89518 26954 ft 407 kts 149°
2026-05-03 22:38 52.25151 -1.87015 26439 ft 403 kts 149°
2026-05-03 22:38 52.22823 -1.84516 25925 ft 398 kts 149°
2026-05-03 22:38 52.20519 -1.82048 25390 ft 394 kts 149°
2026-05-03 22:38 52.18228 -1.79597 24781 ft 392 kts 149°
2026-05-03 22:39 52.15961 -1.77173 24303 ft 388 kts 149°
2026-05-03 22:39 52.13706 -1.74767 23752 ft 385 kts 149°
2026-05-03 22:39 52.11468 -1.72380 23126 ft 384 kts 149°
2026-05-03 22:39 52.09252 -1.70021 22646 ft 378 kts 149°
2026-05-03 22:40 52.07067 -1.67696 22132 ft 373 kts 149°
2026-05-03 22:40 52.04909 -1.65402 21619 ft 369 kts 149°
2026-05-03 22:40 52.02768 -1.63130 21111 ft 365 kts 149°
2026-05-03 22:40 52.00684 -1.60920 20677 ft 360 kts 149°
2026-05-03 22:41 51.98565 -1.58676 20165 ft 357 kts 149°
2026-05-03 22:41 51.96515 -1.56510 19643 ft 355 kts 149°
2026-05-03 22:41 51.94450 -1.54330 19134 ft 353 kts 149°
2026-05-03 22:41 51.92394 -1.52162 18614 ft 352 kts 149°
2026-05-03 22:42 51.90339 -1.49996 18098 ft 350 kts 149°
2026-05-03 22:42 51.88303 -1.47853 17578 ft 348 kts 149°
2026-05-03 22:42 51.86284 -1.45730 17077 ft 345 kts 149°
2026-05-03 22:42 51.84283 -1.43626 16628 ft 341 kts 149°
2026-05-03 22:43 51.82297 -1.41541 16124 ft 338 kts 149°
2026-05-03 22:43 51.80332 -1.39482 15652 ft 336 kts 149°
2026-05-03 22:43 51.78376 -1.37433 15221 ft 332 kts 149°
2026-05-03 22:43 51.76440 -1.35409 15128 ft 341 kts 149°
2026-05-03 22:44 51.74419 -1.33305 15033 ft 353 kts 149°
2026-05-03 22:44 51.72359 -1.31155 14948 ft 350 kts 149°
2026-05-03 22:44 51.70311 -1.29017 14938 ft 350 kts 149°
2026-05-03 22:44 51.68263 -1.26881 14937 ft 351 kts 149°
2026-05-03 22:45 51.66213 -1.24748 14938 ft 351 kts 149°
2026-05-03 22:45 51.64155 -1.22608 14938 ft 351 kts 149°
2026-05-03 22:45 51.62104 -1.20478 14938 ft 351 kts 149°
2026-05-03 22:45 51.60075 -1.18374 14938 ft 351 kts 149°
2026-05-03 22:46 51.58022 -1.16247 14939 ft 351 kts 149°
2026-05-03 22:46 51.55967 -1.14121 14938 ft 351 kts 149°
2026-05-03 22:46 51.53916 -1.12002 14937 ft 351 kts 149°
2026-05-03 22:46 51.51857 -1.09875 14940 ft 351 kts 149°
2026-05-03 22:47 51.49806 -1.07759 14937 ft 351 kts 149°
2026-05-03 22:47 51.47755 -1.05646 14939 ft 351 kts 149°
2026-05-03 22:47 51.45700 -1.03531 14937 ft 351 kts 149°
2026-05-03 22:47 51.43645 -1.01418 14937 ft 351 kts 149°
2026-05-03 22:48 51.41591 -0.99308 14939 ft 351 kts 149°
2026-05-03 22:48 51.39534 -0.97199 14939 ft 351 kts 149°
2026-05-03 22:48 51.37478 -0.95091 14927 ft 350 kts 149°
2026-05-03 22:48 51.35446 -0.93011 14936 ft 351 kts 149°
2026-05-03 22:49 51.33393 -0.90912 14941 ft 351 kts 150°
2026-05-03 22:49 51.31324 -0.88799 14938 ft 353 kts 150°
2026-05-03 22:49 51.29254 -0.86687 14939 ft 353 kts 150°
2026-05-03 22:49 51.27184 -0.84577 14939 ft 353 kts 150°
2026-05-03 22:50 51.25115 -0.82471 14938 ft 353 kts 150°
2026-05-03 22:50 51.23040 -0.80361 14939 ft 353 kts 150°
2026-05-03 22:50 51.20968 -0.78255 14937 ft 353 kts 150°
2026-05-03 22:50 51.18899 -0.76156 14909 ft 352 kts 150°
2026-05-03 22:51 51.16831 -0.74060 14552 ft 353 kts 150°
2026-05-03 22:51 51.14749 -0.71953 13881 ft 357 kts 150°
2026-05-03 22:51 51.12625 -0.69807 12962 ft 364 kts 149°
2026-05-03 22:51 51.10489 -0.67648 12201 ft 361 kts 149°
2026-05-03 22:52 51.08397 -0.65534 11715 ft 346 kts 149°
2026-05-03 22:52 51.06503 -0.63412 11599 ft 337 kts 141°
2026-05-03 22:52 51.04909 -0.60619 11487 ft 343 kts 127°
2026-05-03 22:52 51.03744 -0.57304 11384 ft 344 kts 118°
2026-05-03 22:53 51.02686 -0.53882 11274 ft 343 kts 118°
2026-05-03 22:53 51.01621 -0.50460 11177 ft 346 kts 118°
2026-05-03 22:53 51.00569 -0.47097 11060 ft 343 kts 118°
2026-05-03 22:53 50.99509 -0.43721 10961 ft 341 kts 118°
2026-05-03 22:54 50.98447 -0.40346 10946 ft 341 kts 118°
2026-05-03 22:54 50.97384 -0.36977 10942 ft 342 kts 118°
2026-05-03 22:54 50.96317 -0.33597 10944 ft 342 kts 118°
2026-05-03 22:54 50.95251 -0.30226 10944 ft 342 kts 118°
2026-05-03 22:55 50.94184 -0.26853 10946 ft 342 kts 118°
2026-05-03 22:55 50.93117 -0.23487 10945 ft 342 kts 118°
2026-05-03 22:55 50.92201 -0.20016 10929 ft 343 kts 105°
2026-05-03 22:55 50.92060 -0.16300 10687 ft 336 kts 83°
2026-05-03 22:56 50.92742 -0.12821 10211 ft 327 kts 66°
2026-05-03 22:56 50.93679 -0.09590 9745 ft 318 kts 66°
2026-05-03 22:56 50.94586 -0.06486 9197 ft 312 kts 66°
2026-05-03 22:56 50.95489 -0.03400 8638 ft 306 kts 66°
2026-05-03 22:57 50.96375 -0.00371 8168 ft 298 kts 66°
2026-05-03 22:57 50.97235 0.02566 7741 ft 290 kts 66°
2026-05-03 22:57 50.98074 0.05432 7319 ft 282 kts 66°
2026-05-03 22:57 50.98893 0.08216 6979 ft 274 kts 66°
2026-05-03 22:58 50.99701 0.10955 6636 ft 273 kts 66°
2026-05-03 22:58 51.00504 0.13674 6299 ft 271 kts 66°
2026-05-03 22:58 51.01305 0.16385 5946 ft 270 kts 66°
2026-05-03 22:58 51.02088 0.19039 5588 ft 268 kts 66°
2026-05-03 22:59 51.02874 0.21716 5278 ft 266 kts 66°
2026-05-03 22:59 51.03827 0.24177 5050 ft 260 kts 45°
2026-05-03 22:59 51.05332 0.25631 4884 ft 251 kts 14°
2026-05-03 22:59 51.07009 0.25698 4756 ft 237 kts 344°
2026-05-03 23:00 51.08616 0.24931 4724 ft 244 kts 341°
2026-05-03 23:00 51.10218 0.24125 4668 ft 240 kts 341°
2026-05-03 23:00 51.11815 0.23322 4620 ft 241 kts 341°
2026-05-03 23:00 51.13409 0.22520 4570 ft 240 kts 341°
2026-05-03 23:01 51.14973 0.21607 4496 ft 239 kts 327°
2026-05-03 23:01 51.16114 0.19765 4453 ft 235 kts 296°
2026-05-03 23:01 51.16784 0.17393 4414 ft 234 kts 291°
2026-05-03 23:01 51.17417 0.15004 4357 ft 233 kts 291°
2026-05-03 23:02 51.18046 0.12619 4281 ft 234 kts 291°
2026-05-03 23:02 51.18477 0.10163 3965 ft 234 kts 274°
2026-05-03 23:02 51.18431 0.07526 3477 ft 236 kts 261°
2026-05-03 23:02 51.18140 0.05009 3128 ft 232 kts 256°
2026-05-03 23:03 51.17787 0.02516 2797 ft 229 kts 257°
2026-05-03 23:03 51.17444 0.00025 2484 ft 225 kts 257°
2026-05-03 23:03 51.17126 -0.02295 2156 ft 208 kts 256°
2026-05-03 23:03 51.16831 -0.04427 1898 ft 186 kts 257°
2026-05-03 23:04 51.16565 -0.06354 1643 ft 170 kts 257°
2026-05-03 23:04 51.16323 -0.08112 1417 ft 155 kts 257°
2026-05-03 23:04 51.16100 -0.09726 1207 ft 143 kts 257°
2026-05-03 23:04 51.15894 -0.11217 1031 ft 132 kts 257°
2026-05-03 23:05 51.15696 -0.12647 848 ft 133 kts 256°
2026-05-03 23:05 51.15503 -0.14071 651 ft 131 kts 257°
2026-05-03 23:05 51.15305 -0.15494 429 ft 131 kts 255°
2026-05-03 23:05 51.15105 -0.16889 273 ft 131 kts 256°
2026-05-03 23:06 51.14917 -0.18254 203 ft 108 kts 257°
2026-05-03 23:06 51.14797 -0.19101 213 ft 50 kts 257°
2026-05-03 23:06 51.14734 -0.19568 208 ft 39 kts 257°
2026-05-03 23:06 51.14702 -0.19908 205 ft 26 kts 272°
2026-05-03 23:07 51.14732 -0.20198 208 ft 26 kts 283°
2026-05-03 23:07 51.14768 -0.20464 201 ft 21 kts 282°
2026-05-03 23:07 51.14829 -0.20639 207 ft 17 kts 356°
2026-05-03 23:07 51.14888 -0.20492 207 ft 18 kts 78°
2026-05-03 23:08 51.14917 -0.20284 211 ft 20 kts 78°
2026-05-03 23:08 51.14950 -0.20042 205 ft 25 kts 77°
2026-05-03 23:08 51.14988 -0.19759 212 ft 27 kts 77°
2026-05-03 23:08 51.15029 -0.19476 209 ft 22 kts 77°
2026-05-03 23:09 51.15064 -0.19223 204 ft 24 kts 78°
2026-05-03 23:09 51.15099 -0.18950 211 ft 26 kts 78°
2026-05-03 23:09 51.15138 -0.18663 204 ft 27 kts 77°
2026-05-03 23:09 51.15172 -0.18408 208 ft 22 kts 78°
2026-05-03 23:10 51.15193 -0.18250 210 ft 10 kts 68°
2026-05-03 23:10 51.15267 -0.18233 211 ft 16 kts 341°
2026-05-03 23:10 51.15390 -0.18279 211 ft 17 kts 351°
2026-05-03 23:10 51.15447 -0.18177 214 ft 14 kts 74°
2026-05-03 23:11 51.15475 -0.17997 205 ft 16 kts 78°
2026-05-03 23:11 51.15488 -0.17895 210 ft 8 kts 78°
2026-05-03 23:11 51.15514 -0.17862 216 ft 6 kts
2026-05-03 23:11 51.15547 -0.17869 214 ft 0 kts 344°
2026-05-03 23:12 51.15551 -0.17871 213 ft 0 kts 344°